一网星座-0309星 (ONEWEB-0309 )

导读 | 星芒AI

ONEWE-0309 是 OneWeb 卫星通信星座计划中的一颗低轨通信卫星,旨在为全球提供高速互联网服务。该卫星由空中客车防务与航天公司制造,搭载星间激光链路和Ka波段通信载荷,支持高带宽数据传输。2022年2月,该卫星随联盟号火箭成功发射入轨,成为OneWeb星座的重要组成部分。OneWeb 计划部署数百颗此类卫星,以实现全球覆盖,特别是在偏远和网络基础设施薄弱地区提供稳定连接。ONEWE-0309 的成功部署标志着该计划在实现全球宽带目标上迈出关键一步。

基本信息
目录编号:
49095
目录名称:
ONEWEB-0309
国际标识:
2021-075W
轨道中心:
EARTH
卫星名称:
一网星座-0309星
卫星全名:
一网星座-0309星 (ONEWEB-0309 )
卫星状态:
在轨 (已飞行1577 天)
发射日期:
2021-08-21 UTC
国别 :
英国 (GB)
星等 :
--
轨道信息
数据来源 国际轨道数据 AOE轨道数据
星历时间 2025-12-15T01:11:03+0800
1天前
查看轨道信息
2025-12-11T04:00:00+0800
4天前
查看轨道信息
半长轴 7571.857km 7571.851km
偏心率 0.000142 0.000185
轨道倾角 87.912° 87.911°
近地点辐角 91.768° 67.317°
升交点赤经 42.538° 43.310°
平近点角 268.362° 245.735°
近地点 1192.646km 1192.315km
远地点 1194.798km 1195.117km
周期 109.286分钟 109.286分钟
每日圈数 13.176473 13.17649
详细信息
平衡模式:
三轴稳定
覆盖范围:
全球
运营商:
一网卫星公司
运营商所在国:
英国
制造商(研发单位):
一网卫星公司
制造商所在国:
英国
使用方式:
暂无
卫星简介
OneWeb卫星网络由648颗重约125公斤的微型卫星组成,运行在1200公里的轨道上。 每颗卫星都能够提供至少每秒8千兆位的吞吐量,以使用其高吞吐量的Ku频段有效载荷为家庭和移动平台提供互联网接入。该卫星仍在工作。
2D轨道图
3D轨道图
轨道高度分析图
轨道倾角分析图
轨道综合分析图
查看轨道综合分析图